Weather in Privetninskoe

Russia / Saint-Petersburg and Leningrad Oblast     60°11′10″N   29°25′23″E
temp.,
°C
wind,
m/s
gust,
m/s
humid.,
%
clouds,
%
prec.,
mm/h
press.,
hPa
HPBL,
m
20 january, thu
thu2000:00+1sw71694100 0.3 992808
03:00+1sw61495100 0.3 990732
06:00+1ssw61494100 0.3 988688
09:00+1s51192100 0.3 986767
12:000s41199100 1.3 986671
15:000sse38100100 2.9 984540
18:000sse3899100 2.3 984482
21:00−1s3698100 4.2 985366
21 january, fri
fri2100:00−4s369667 0.4 986200
03:00−10sse2210098 0.4 98825
06:00−9se2210097 0.1 99045
09:00−11e1110092 0.1 99219
12:00−5e249699 0.1 995151
15:00−5ne3695100 0.2 997222
18:00−6nne389583 0.1 1000222
21:00−6nne4119499 0.1 1003338
22 january, sat
sat2200:00−4nne51191100 0.1 1006566
03:00−6n61393100 0.1 1008450
06:00−7n61392100 0.1 1009461
09:00−6nne5139187 0.1 1011565
12:00−5nne499298 0.1 1014658
15:00−5ne379099 0.2 1016671
18:00−6nne3792100 0.1 1019399
21:00−12n229995 0.1 102118
23 january, sun
sun2300:00−14ne1110087 0.0 10249
03:00−16nne119966 0.1 10269
06:00−18ese119962 0.0 10279
09:00−18ese119958 0.0 10299
12:00−13s129756 0.0 103159
15:00−11s1395100 0.0 103296
18:00−12s139783 0.0 103252
21:00−11ssw379679 0.0 1032137
24 january, mon
mon2400:00−9ssw399376 0.0 1032223
03:00−8ssw41290100 0.0 1031311
06:00−7ssw4138899 0.0 1029360
09:00−7ssw5148678 0.0 1026378
12:00−5ssw51684100 0.0 1025508
15:00−5ssw61588100 0.3 1022576
18:00−4ssw71795100 0.5 1020616
21:00−4ssw71694100 1.5 1018644